Regional Weather Roundup
Issued by NWS Huntsville, AL

Home | Current Version | Previous Version | Text Only | Print | Product List | Glossary On
Versions: 1 2 3 4 5 6 7 8 9 10 11 12 13 14 15 16 17 18 19 20 21 22 23 24 25 26 27
000
ASUS44 KHUN 242310
RWRHUN

WEATHER ROUNDUP FOR THE TENNESSEE VALLEY
NATIONAL WEATHER SERVICE HUNTSVILLE AL
600 PM CDT TUE MAY 24 2016

ALZ001>004-250000-
NORTHWEST ALABAMA

CITY           SKY/WX    TMP DP  RH WIND       PRES   REMARKS
COURTLAND HCN    N/A     84 N/A N/A S8          N/A
RUSSELLVILLE     N/A     82 N/A N/A MISG        N/A
SHOALS AIRPORT SUNNY     85  54  34 S7        30.07S
SHOALS TVA RES   N/A     86 N/A N/A MISG        N/A
$$

ALZ005>007-016-250000-
NORTH CENTRAL ALABAMA

CITY           SKY/WX    TMP DP  RH WIND       PRES   REMARKS
CULLMAN AG STN   N/A     82 N/A N/A SW5         N/A
DECATUR AP     SUNNY     83  53  35 S9        30.08S
HUNTSVILLE AP  MOSUNNY   85  49  28 SW7       30.08S
HUN NWS/UAH      N/A     85  49  28 S6          N/A
MERIDIANVILLE  SUNNY     84  37  18 S7        30.08F
REDSTONE ARSN  SUNNY     83  54  36 SW5       30.07F
VINEMONT AP    FAIR      82  54  38 SW3       30.12F
$$

ALZ008>010-250000-
NORTHEAST ALABAMA

CITY           SKY/WX    TMP DP  RH WIND       PRES   REMARKS
ALBERTVILLE    SUNNY     82  63  51 SE6       30.10S
FORT PAYNE     SUNNY     82  46  28 SW6       30.10S
SCOTTSBORO AP  SUNNY     84  50  30 SW5       30.09F
SCOTTSBORO HCN   N/A     84 N/A N/A MISG        N/A
VALLEY HEAD      N/A     81 N/A N/A MISG        N/A
$$

TNZ076-096-097-250000-
SOUTHEASTERN MIDDLE TENNESSEE

CITY           SKY/WX    TMP DP  RH WIND       PRES   REMARKS
TULLAHOMA      SUNNY     81  46  30 S7        30.10F
WINCHESTER     SUNNY     84  52  32 S7        30.09S
$$

...SURROUNDING SITES...

CITY           SKY/WX    TMP DP  RH WIND       PRES   REMARKS
ATLANTA        MOSUNNY   83  51  33 W7        30.13R
ANNISTON       SUNNY     84  52  33 W7        30.10F
BIRMINGHAM     MOSUNNY   85  51  31 SE7       30.11S
CHATTANOOGA    MOSUNNY   85  50  29 W5        30.09S
DALTON         MOSUNNY   82  54  36 SW5       30.11R
GADSDEN        SUNNY     84  56  38 S5        30.10S
GOLDEN TRNGL   SUNNY     86  59  39 SE9       30.05F
HALEYVILLE     FAIR      83  55  38 S6        30.11S
JACKSON TN     CLOUDY    82  64  54 CALM      30.05R
MEMPHIS        CLOUDY    85  64  49 S13       30.01S
NASHVILLE      MOSUNNY   85  51  31 SW3       30.07S
OXFORD MS      FAIR      84  59  42 S7        30.05R
ROME           SUNNY     83  50  31 W5        30.10S
SAVANNAH       SUNNY     84  59  42 SE3       30.05R
TUPELO         SUNNY     87  54  32 S12       30.03F
TUSCALOOSA     SUNNY     85  56  37 S9        30.07F
$$

...GULF COAST WEATHER...

CITY           SKY/WX    TMP DP  RH WIND       PRES   REMARKS
GULFPORT       MOSUNNY   81  65  58 S10       30.09S
PASCAGOULA     SUNNY     80  63  55 SE9       30.10S
MOBILE         SUNNY     82  54  37 SE10      30.11S
GULF SHORES    CLEAR     78  65  64 S12G17    30.10S
PENSACOLA      MOSUNNY   80  61  52 SW10      30.10S
DESTIN         SUNNY     84  64  50 SW8       30.09S
PANAMA CITY    SUNNY     81  64  57 SW7       30.09S
APPALACHICOLA  SUNNY     80  67  64 SW7       30.09F
$$





USA.gov is the U.S. government's official web portal to all federal, state and local government web resources and services.